Location: Krakow
(50.0830°N, 19.9170°E)
Time: 07:06:13
(UTC+02:00)

A-11 Canister half - Pass Details

Date: 18 March 2026
Orbit: 1523 x 1684 km, 47.3° (Epoch: 18 April)

Event Time Altitude Azimuth Distance (km) Brightness Sun altitude
Rises 07:55:12 0° 214° (SW) 4,901 11.6 19.0°
Reaches altitude 10° 07:58:38 10° 208° (SSW) 3,900 11.2 19.4°
Maximum altitude 08:07:36 40° 143° (SE) 2,248 11.2 20.7°
Drops below altitude 10° 08:16:18 10° 79° (E) 3,799 11.9 21.9°
Sets 08:19:35 0° 72° (ENE) 4,764 12.2 22.4°
